Location: Kelowna
(49.8880°N, 119.4960°W)
Time: 22:20:20
(UTC-07:00)

CUBESAT XI-V - Visible Passes

Search period start: 15 April 2024 00:00
Search period end: 25 April 2024 00:00
Orbit: 658 x 681 km, 98.2° (Epoch: 15 April)

Date Brightness Start Highest point End Pass type
(mag) Time Alt. Az. Time Alt. Az. Time Alt. Az.
15 Apr ? 02:15:45 43° E 02:16:13 44° ENE 02:20:38 10° N visible
15 Apr ? 03:53:57 25° W 03:53:57 25° W 03:57:21 10° NW visible
16 Apr ? 01:10:26 11° E 01:12:23 14° NE 01:14:48 10° NNE visible
16 Apr ? 02:48:38 83° SE 02:48:47 86° ENE 02:53:26 10° NNW visible
16 Apr ? 04:26:50 13° W 04:26:50 13° W 04:28:44 10° WNW visible
17 Apr ? 01:43:19 22° E 01:44:39 25° ENE 01:48:23 10° N visible
17 Apr ? 03:21:31 48° W 03:21:31 48° W 03:25:59 10° NNW visible
18 Apr ? 02:16:12 40° E 02:17:03 45° ENE 02:21:28 10° N visible
18 Apr ? 03:54:23 25° W 03:54:23 25° W 03:58:09 10° NW visible
19 Apr ? 01:10:52 10° E 01:13:11 14° NE 01:15:38 10° NNE visible
19 Apr ? 02:49:04 70° SSE 02:49:35 87° E 02:54:15 10° NNW visible
19 Apr ? 04:27:15 13° W 04:27:19 13° W 04:29:28 10° WNW visible
20 Apr ? 01:43:43 20° E 01:45:26 25° ENE 01:49:11 10° N visible
20 Apr ? 03:21:55 47° WSW 03:22:16 48° W 03:26:46 10° NNW visible
21 Apr ? 02:16:35 36° ESE 02:17:49 45° ENE 02:22:13 10° N visible
21 Apr ? 03:54:46 25° W 03:55:05 25° W 03:58:54 10° NW visible
22 Apr ? 01:11:27 10° E 01:13:55 14° NE 01:16:23 10° NNE visible
22 Apr ? 02:49:26 58° SSE 02:50:20 88° ENE 02:54:59 10° NNW visible
22 Apr ? 04:27:37 13° W 04:28:04 13° W 04:30:09 10° WNW visible
23 Apr ? 01:44:05 18° E 01:46:08 25° ENE 01:49:54 10° N visible
23 Apr ? 03:22:16 43° SW 03:22:59 47° W 03:27:28 10° NNW visible
24 Apr ? 02:16:55 33° ESE 02:18:30 46° ENE 02:22:55 10° N visible
24 Apr ? 03:55:07 24° WSW 03:55:48 24° W 03:59:35 10° NW visible
